sat.trackr.live / text

‹ back to catalog

STARLINK-4655

NORAD 53613 · 2022-104AB

PAYLOAD ACTIVE UNKNOWN

§ Identity

Operator
Country
US
Launch date
2022-08-28
Launch site
AFETR
Launch vehicle
Mass (kg)
RCS (m²)

Purposes: comms

External: N2YO · Heavens-Above · Gunter

§ Orbital elements

Epoch: 2026-09-20T21:43:42.667680Z

Period
93.79 min
Inclination
53.1604°
Eccentricity
0.0001204
Mean motion
15.35394764 rev/d
Perigee alt
458.9 km
Apogee alt
460.6 km
Semi-major
6,837.9 km
B*
-4.9171e-6
RAAN
66.0430°
Arg perigee
88.5843°
Mean anomaly
271.5298°
Rev number
22,526

§ Raw data

STARLINK-46551 53613U 22104AB  26263.90535495 -.00000552  00000+0 -49171-5 0  99962 53613  53.1604  66.0430 0001204  88.5843 271.5298 15.35394764225269

JSON: /api/v1/satellites/53613 · /tle

For live sub-satellite position, see the globe view (requires WebGL).

§ Visibility from observer

Set your observer location to see the next 7 days of passes ≥ 10°. The values pass through the URL so the page stays shareable.

No JS? Fill the form by hand. The geolocation button needs JavaScript.